Wind_Speed
31 34 36 37 37 36 37 37 37 37 36 36 36 36 36 36 37 39 39 39 42 44 42 42 43 45 44 42 40 40 40 39 40 40 39 37 38 36 34 35 37 39 41
37 38 35 36 37 38 37 36 37 39 40 41 43 43 43 42 41 39 40 42 40 41 44 43 42 43 44 44 44 43 42 42 42 41 41 40 40 40 38 37 36 37 37
38 38 38 39 39 40 40 41 42 42 44 46 46 47 46 45 44 43 42 42 43 45 44 46 47 46 47 47 46 45 45 44 44 42 43 43 41 41 41 40 38 37 37
40 39 39 41 41 42 44 46 48 48 48 48 48 47 46 47 45 44 45 45 45 46 47 47 48 48 49 49 49 48 47 45 44 45 44 44 43 45 43 41 39 40 39
38 40 40 41 43 45 47 49 51 53 53 52 51 50 49 48 47 45 44 44 46 48 48 49 49 48 48 49 50 49 48 46 44 43 46 45 42 43 47 44 43 40 39
40 41 42 44 46 48 50 53 55 56 58 56 55 53 51 50 48 46 44 44 46 47 48 50 50 50 49 50 49 50 50 49 46 43 42 44 47 43 44 46 45 44 43
41 42 44 47 49 51 54 56 58 59 58 58 55 52 48 46 44 42 41 39 40 42 43 46 48 51 51 52 51 50 50 50 51 48 47 44 46 43 44 44 43 47 44
43 45 46 48 51 53 56 58 60 59 57 54 50 47 43 39 34 32 30 30 30 30 33 36 41 44 48 51 51 52 53 53 53 53 51 50 47 43 39 39 45 47 46
46 47 48 51 53 55 58 59 60 59 55 48 43 38 34 29 23 24 24 23 23 24 25 26 29 33 38 43 46 48 51 53 55 55 54 53 51 47 45 38 40 44 47
47 49 50 53 54 56 58 60 60 60 55 47 41 35 31 26 25 25 27 27 26 26 24 24 25 25 28 32 35 38 42 46 49 55 57 56 54 53 51 51 44 45 47
49 51 53 54 55 57 58 60 59 59 54 45 42 36 33 29 28 29 30 30 30 31 32 32 33 33 32 32 34 34 37 41 44 47 53 58 58 56 56 54 51 56 53
51 53 53 54 55 57 59 60 60 60 56 46 42 37 33 31 30 32 33 34 34 34 35 35 36 37 38 37 38 39 38 40 41 43 46 50 58 60 59 59 57 56 55
53 53 55 54 56 58 61 62 63 62 58 48 44 37 33 32 29 32 35 37 37 37 37 36 38 39 40 42 43 44 44 44 45 45 46 47 51 55 60 62 62 60 60
55 55 55 56 58 60 63 64 65 65 61 51 45 35 33 33 31 34 38 39 37 35 33 33 34 35 36 39 40 43 46 48 49 50 51 51 50 53 53 61 65 64 64
57 57 57 59 62 63 64 66 66 65 62 53 46 36 34 33 34 37 40 39 39 36 35 35 37 38 39 38 40 40 40 45 49 51 54 54 56 56 57 56 63 68 66
57 58 60 61 64 66 67 68 65 65 61 55 48 38 37 35 35 39 41 41 39 38 39 39 41 41 41 42 44 45 45 46 46 50 53 57 60 60 61 62 58 68 71
60 61 62 64 66 68 69 70 67 66 63 55 50 41 40 37 37 40 42 42 41 40 41 41 43 43 43 45 49 50 52 54 54 52 53 55 58 64 65 66 66 64 75
63 64 66 69 69 70 73 72 68 68 64 57 53 43 42 38 38 41 43 44 43 42 43 44 45 45 46 50 53 55 60 62 62 62 63 60 59 62 68 71 70 70 72
68 68 69 71 71 73 76 72 71 69 63 59 54 45 42 40 40 44 45 46 45 45 46 46 46 46 47 52 54 58 62 64 68 70 70 71 70 66 66 73 76 77 76
71 72 72 72 73 76 75 74 74 69 63 61 56 47 43 41 42 46 48 48 46 46 47 47 47 47 49 53 55 58 59 66 71 75 77 79 77 75 73 71 78 81 82
74 75 74 75 77 76 78 78 75 70 65 64 56 49 45 42 44 48 49 49 48 49 47 48 48 50 51 52 55 59 61 67 73 78 81 83 85 85 83 76 75 82 89
78 79 77 76 77 79 82 79 77 71 68 66 56 50 46 43 45 49 50 51 50 51 50 51 51 53 58 58 60 63 65 73 75 82 87 87 91 94 94 88 84 84 87
79 79 77 78 80 81 85 81 75 73 73 67 58 51 47 45 48 50 51 52 53 54 54 56 55 58 61 63 66 69 71 77 80 85 93 94 99 103 101 91 87 91 95
79 78 79 81 81 85 87 80 78 77 73 62 55 47 46 47 50 51 53 54 55 56 58 60 60 63 64 66 71 76 80 84 87 82 93 101 103 96 90 84 84 93 103
82 82 82 83 86 89 85 81 78 73 63 54 45 42 46 47 51 52 54 56 58 59 61 63 65 66 66 70 75 81 87 90 94 91 87 97 88 90 82 82 80 82 99
84 84 85 90 92 87 83 75 70 62 54 47 42 45 48 49 52 53 56 58 59 61 63 65 66 67 69 74 79 88 91 95 97 93 91 82 78 85 74 73 76 77 85
Wind_Direction
312 310 308 307 307 306 305 302 301 300 299 297 295 293 292 286 281 279 271 270 270 271 270 268 268 268 270 266 267 267 266 266 267 268 267 265 266 267 265 265 264 269 273
313 311 310 310 309 308 306 306 304 304 303 302 299 297 295 291 287 280 275 271 271 267 266 265 264 264 264 262 261 262 264 263 263 262 264 264 263 262 262 263 263 266 267
313 315 313 311 311 310 309 308 306 306 304 303 300 297 293 290 286 282 276 272 268 268 266 266 264 263 261 260 259 259 261 260 260 260 258 259 261 262 261 262 259 259 261
314 313 311 311 311 311 312 312 312 310 308 305 301 298 296 293 289 282 277 271 268 266 265 263 262 263 264 261 259 258 257 259 258 259 258 257 259 258 261 262 259 256 258
312 311 312 313 315 316 317 317 316 315 315 312 309 306 302 299 294 286 278 273 268 265 264 262 261 260 261 260 259 258 257 255 255 258 257 255 253 259 260 260 258 256 255
312 315 316 318 320 320 319 318 318 321 321 319 316 313 308 303 298 293 285 277 271 267 265 260 259 258 257 255 257 257 257 258 256 254 252 254 253 253 257 258 258 256 257
313 316 317 322 322 319 318 318 319 323 324 323 319 315 311 307 301 297 293 287 278 273 269 265 259 257 256 254 254 255 254 255 256 252 252 255 252 254 254 261 259 260 259
314 317 320 320 318 317 318 320 322 325 326 323 318 317 314 311 310 306 301 295 290 281 275 271 266 262 258 257 256 254 253 254 254 252 249 250 252 252 253 252 261 261 257
314 316 316 317 317 318 319 320 324 326 326 322 318 317 314 313 314 315 315 311 305 299 292 287 281 275 270 265 262 261 258 257 256 254 252 249 247 246 250 248 247 252 254
311 313 314 316 317 317 318 321 323 326 329 323 318 310 311 313 314 314 312 309 307 304 300 294 289 285 280 273 269 267 266 262 259 258 255 252 246 244 242 245 247 248 250
308 311 313 316 317 319 320 322 324 326 328 322 318 303 300 305 309 311 307 304 302 298 296 295 293 289 281 277 277 273 270 268 266 264 259 255 252 247 242 240 240 249 250
307 310 312 316 316 318 320 323 324 325 327 321 318 301 292 300 308 307 305 303 301 296 293 291 288 287 286 283 279 275 272 271 267 265 264 261 256 251 245 243 240 241 248
306 310 313 315 315 318 321 325 324 323 324 321 317 300 286 291 302 302 301 299 295 292 290 287 287 286 284 283 282 281 278 274 270 267 266 262 263 258 248 245 244 242 243
306 308 312 313 313 316 321 322 322 322 322 320 318 301 287 292 300 303 302 300 295 290 288 288 288 285 285 282 281 279 278 276 275 272 268 266 261 261 257 247 242 243 242
305 307 310 312 314 315 318 319 320 321 321 319 318 302 292 294 301 304 303 301 298 296 297 296 295 297 296 292 286 285 280 274 273 272 271 268 266 261 258 253 243 240 241
301 305 307 309 312 315 316 317 318 319 319 318 316 302 294 294 300 304 302 301 299 299 300 301 301 303 302 301 299 297 292 286 279 271 268 267 266 262 257 254 247 239 238
301 303 305 307 310 313 313 314 316 318 318 316 314 300 291 293 297 301 299 299 297 297 299 301 302 302 301 300 299 297 292 291 288 285 278 271 267 264 260 257 251 242 235
299 301 305 306 310 311 312 313 315 317 315 316 311 300 290 291 295 300 297 299 296 297 299 300 302 301 301 299 298 297 295 293 289 285 281 276 272 265 260 256 253 247 239
298 301 302 307 308 309 310 311 314 315 314 314 308 299 288 289 294 300 298 297 296 297 301 301 301 299 300 297 297 294 293 288 287 286 285 283 278 269 261 257 255 249 240
298 299 302 305 306 308 306 310 312 311 310 312 307 298 286 289 295 300 298 297 297 298 299 299 298 297 298 297 297 301 296 295 293 290 289 286 283 277 265 258 252 251 245
296 298 299 302 305 303 305 308 309 307 307 310 304 297 285 288 294 298 297 296 296 298 300 299 295 297 296 294 298 299 296 295 292 292 289 287 285 279 275 266 250 246 245
293 294 298 301 301 301 305 306 307 304 305 306 302 294 284 287 292 296 294 295 295 298 300 299 299 300 298 297 300 298 295 295 297 295 293 290 284 282 279 269 259 241 239
289 293 296 297 298 300 302 304 303 302 303 303 299 288 282 286 291 294 295 295 295 299 301 303 302 300 301 302 302 300 298 300 298 297 295 291 289 286 280 269 257 242 231
290 294 293 296 296 298 301 301 299 299 299 299 294 281 280 285 291 294 295 297 298 302 304 305 303 303 303 308 307 305 304 301 299 297 298 295 293 284 275 266 256 243 235
289 290 292 292 295 298 299 297 295 293 295 297 286 279 282 286 292 294 298 299 301 304 304 305 305 305 308 310 309 310 308 306 304 305 301 296 290 280 273 267 257 245 238
286 287 290 293 294 294 296 293 290 291 293 288 281 282 284 289 293 297 299 301 302 303 303 306 305 307 312 312 313 312 310 309 308 307 304 296 290 284 271 263 258 246 237
Height
10976 10975 10973 10970 10967 10965 10963 10960 10958 10955 10953 10950 10947 10944 10942 10940 10938 10935 10932 10931 10930 10929 10929 10929 10928 10929 10930 10930 10930 10930 10930 10931 10931 10933 10933 10934 10934 10934 10934 10934 10935 10934 10934
10973 10971 10968 10966 10964 10961 10958 10955 10952 10949 10945 10943 10939 10937 10934 10931 10929 10927 10924 10922 10921 10921 10920 10920 10920 10919 10920 10921 10922 10922 10923 10923 10924 10925 10927 10927 10928 10929 10929 10928 10928 10928 10929
10970 10967 10964 10962 10958 10955 10952 10949 10946 10942 10938 10934 10931 10927 10923 10921 10919 10916 10914 10913 10912 10911 10911 10911 10911 10911 10911 10912 10913 10914 10914 10915 10917 10918 10919 10919 10920 10921 10923 10924 10924 10923 10924
10966 10964 10961 10958 10954 10949 10945 10941 10937 10933 10929 10924 10920 10916 10913 10909 10907 10905 10903 10902 10901 10901 10901 10901 10901 10901 10902 10903 10904 10904 10905 10907 10909 10910 10912 10913 10915 10915 10915 10917 10918 10919 10919
10963 10960 10957 10953 10949 10943 10939 10935 10930 10924 10919 10914 10909 10905 10901 10898 10895 10893 10892 10891 10890 10890 10890 10890 10891 10891 10892 10893 10895 10896 10896 10898 10900 10902 10904 10905 10909 10909 10909 10911 10912 10914 10914
10959 10956 10951 10947 10942 10937 10933 10928 10923 10917 10910 10903 10898 10894 10889 10886 10882 10880 10879 10879 10878 10878 10878 10879 10880 10881 10882 10883 10884 10886 10888 10890 10893 10895 10895 10896 10899 10904 10903 10904 10906 10907 10909
10954 10951 10947 10941 10937 10932 10927 10921 10916 10910 10903 10895 10889 10885 10881 10877 10873 10871 10867 10867 10866 10866 10866 10867 10868 10870 10871 10872 10874 10875 10878 10880 10882 10886 10888 10890 10892 10896 10899 10898 10901 10900 10902
10949 10945 10941 10937 10932 10927 10921 10914 10908 10904 10898 10890 10884 10879 10874 10870 10867 10864 10862 10860 10858 10858 10857 10857 10857 10859 10860 10861 10864 10865 10867 10869 10871 10874 10878 10881 10885 10889 10892 10894 10892 10892 10894
10943 10939 10936 10932 10927 10921 10915 10909 10903 10898 10893 10886 10879 10874 10869 10866 10864 10861 10859 10857 10855 10853 10852 10852 10852 10852 10853 10853 10854 10856 10857 10859 10861 10863 10866 10871 10875 10880 10883 10884 10884 10883 10885
10937 10934 10931 10926 10920 10914 10908 10903 10898 10892 10887 10880 10875 10870 10865 10862 10860 10859 10856 10854 10852 10850 10848 10847 10847 10847 10846 10846 10846 10847 10848 10849 10850 10852 10855 10858 10862 10867 10872 10875 10875 10873 10876
10931 10927 10923 10918 10913 10907 10902 10897 10892 10887 10881 10875 10870 10865 10861 10857 10855 10854 10852 10850 10848 10846 10844 10842 10840 10840 10840 10840 10839 10840 10841 10842 10843 10843 10844 10846 10851 10856 10859 10863 10865 10864 10866
10924 10920 10916 10911 10906 10900 10895 10891 10885 10879 10875 10870 10865 10860 10857 10853 10850 10849 10847 10845 10843 10841 10839 10836 10835 10833 10832 10832 10832 10832 10833 10833 10833 10834 10834 10835 10837 10843 10848 10851 10854 10854 10857
10917 10913 10909 10905 10900 10895 10888 10883 10878 10872 10867 10864 10858 10853 10852 10849 10846 10844 10842 10841 10838 10835 10833 10831 10829 10827 10826 10825 10824 10823 10823 10824 10824 10825 10825 10826 10826 10828 10834 10839 10842 10845 10845
10910 10906 10902 10898 10893 10888 10883 10878 10871 10865 10859 10856 10852 10847 10845 10843 10841 10839 10836 10834 10832 10830 10828 10825 10823 10820 10818 10816 10816 10814 10814 10814 10814 10814 10815 10815 10817 10816 10819 10825 10831 10834 10834
10903 10898 10895 10891 10885 10881 10877 10872 10865 10858 10852 10848 10845 10841 10839 10836 10834 10832 10829 10826 10823 10821 10819 10817 10815 10813 10810 10808 10806 10805 10804 10802 10802 10801 10801 10802 10803 10805 10805 10808 10814 10820 10823
10897 10894 10888 10884 10879 10874 10869 10865 10859 10852 10845 10840 10837 10834 10832 10829 10827 10824 10821 10819 10816 10813 10810 10808 10805 10802 10799 10798 10795 10793 10790 10790 10790 10789 10788 10787 10787 10789 10790 10792 10797 10803 10809
10887 10884 10882 10877 10873 10868 10863 10857 10852 10845 10838 10833 10829 10826 10824 10822 10820 10817 10814 10811 10808 10805 10802 10799 10796 10793 10790 10787 10784 10782 10779 10777 10775 10776 10774 10771 10772 10773 10774 10776 10781 10785 10789
10877 10874 10870 10865 10863 10857 10852 10847 10842 10836 10829 10825 10820 10817 10815 10814 10811 10808 10806 10803 10799 10796 10793 10790 10787 10783 10779 10774 10771 10768 10764 10761 10759 10758 10756 10757 10757 10755 10755 10755 10760 10768 10772
10865 10863 10860 10856 10851 10846 10840 10836 10832 10827 10821 10816 10811 10808 10805 10804 10801 10799 10796 10793 10790 10786 10782 10778 10775 10771 10768 10765 10761 10756 10751 10745 10742 10739 10736 10736 10735 10736 10738 10738 10739 10744 10753
10854 10852 10849 10846 10840 10835 10828 10826 10821 10817 10812 10807 10802 10799 10796 10794 10791 10789 10786 10782 10778 10775 10771 10767 10763 10759 10756 10751 10748 10742 10736 10728 10722 10718 10714 10709 10707 10709 10712 10714 10717 10721 10727
10843 10840 10838 10834 10830 10822 10816 10814 10810 10804 10801 10796 10792 10789 10786 10784 10781 10779 10776 10772 10768 10764 10761 10757 10752 10748 10745 10743 10738 10731 10726 10717 10712 10702 10695 10689 10683 10679 10678 10683 10688 10692 10698
10831 10825 10825 10822 10816 10808 10804 10802 10798 10792 10788 10785 10781 10778 10775 10773 10772 10769 10766 10762 10758 10754 10749 10745 10741 10736 10730 10727 10721 10716 10709 10700 10693 10681 10669 10663 10655 10649 10645 10646 10653 10661 10669
10819 10815 10813 10809 10803 10797 10792 10790 10785 10781 10776 10772 10769 10766 10764 10762 10761 10758 10754 10750 10746 10741 10736 10731 10726 10722 10714 10707 10700 10693 10687 10679 10674 10660 10642 10629 10618 10607 10603 10607 10615 10625 10634
10807 10805 10800 10796 10791 10784 10781 10777 10772 10768 10764 10760 10756 10754 10752 10752 10750 10746 10742 10738 10732 10727 10722 10717 10711 10704 10699 10688 10677 10666 10657 10650 10642 10647 10619 10590 10577 10564 10561 10572 10582 10591 10602
10793 10789 10786 10782 10778 10772 10769 10763 10758 10753 10751 10748 10744 10743 10742 10741 10738 10735 10730 10724 10718 10713 10708 10701 10694 10686 10679 10667 10656 10643 10631 10618 10605 10598 10597 10555 10542 10523 10533 10537 10546 10557 10571
10775 10773 10771 10767 10762 10758 10755 10748 10742 10740 10738 10736 10735 10734 10731 10729 10726 10722 10716 10711 10705 10700 10694 10686 10678 10670 10659 10647 10633 10619 10606 10591 10575 10563 10547 10526 10512 10485 10504 10509 10511 10524 10539